Find Starlink 31112

NORAD ID: 58680 Int'l Des: 2023-211 Owner: SPXS Country: US Constellation: starlink operational
LEOCIRCULAR

リアルタイム位置

3D地球を読み込み中...

Starlink 31112について

説明を読み込み中...

次回通過

Passes for default location (London). Set your location on the main map for personalized predictions.

高度履歴

Loading altitude history...

軌道要素

1 58680U 23211P 26132.56099600 .00000848 00000-0 40333-4 0 9992
2 58680 42.9993 84.5029 0001290 270.7486 89.3218 15.27584422133412
Epoch: May 12, 2026 • Age: 12 hours

現在のステータス

高度 488.2 km
速度 7.62 km/s
衛星直下点 -23.99°S, 154.51°E
打ち上げ日 Dec 29, 2023
運用期間 2.3 years
タイプ internet

技術仕様

分類 Payload
質量 730.00 kg
乾燥質量 700.00 kg
総質量 730.00 kg
長さ 0.30 m
直径 4.10 m
スパン 29.00 m
形状 Box + pan
製造者 SPXS
バスタイプ Starlink V2M
フェーズステータス In Orbit
所有者/国 SPXS/US

Most Searched